TimeEDT,TemperatureF,Dew PointF,Humidity,Sea Level PressureIn,VisibilityMPH,Wind Direction,Wind SpeedMPH,Gust SpeedMPH,PrecipitationIn,Events,Conditions,WindDirDegrees,DateUTC
12:53 AM,34.0,30.9,89,30.31,10.0,Calm,Calm,-,N/A,,Clear,0,2013-03-10 05:53:00
1:53 AM,32.0,30.0,92,30.31,8.0,Calm,Calm,-,N/A,,Clear,0,2013-03-10 06:53:00
3:53 AM,32.0,30.0,92,30.29,6.0,Calm,Calm,-,N/A,,Clear,0,2013-03-10 07:53:00
4:53 AM,32.0,28.9,88,30.29,6.0,Calm,Calm,-,N/A,,Clear,0,2013-03-10 08:53:00
5:53 AM,30.0,28.9,96,30.30,7.0,Calm,Calm,-,N/A,,Clear,0,2013-03-10 09:53:00
6:18 AM,28.4,26.6,93,30.30,2.0,Calm,Calm,-,N/A,,Clear,0,2013-03-10 10:18:00
6:28 AM,30.2,28.4,93,30.30,6.0,Calm,Calm,-,N/A,,Clear,0,2013-03-10 10:28:00
6:44 AM,28.4,26.6,93,30.29,1.5,Calm,Calm,-,N/A,,Clear,0,2013-03-10 10:44:00
6:53 AM,28.9,26.1,89,30.30,1.2,Calm,Calm,-,N/A,,Clear,0,2013-03-10 10:53:00
6:58 AM,28.4,26.6,93,30.30,3.0,Calm,Calm,-,N/A,,Clear,0,2013-03-10 10:58:00
7:20 AM,28.4,26.6,93,30.30,1.8,Calm,Calm,-,N/A,,Clear,0,2013-03-10 11:20:00
7:27 AM,28.4,26.6,93,30.30,0.2,Calm,Calm,-,N/A,Fog,Light Freezing Fog,0,2013-03-10 11:27:00
7:38 AM,30.2,28.4,93,30.31,1.0,Calm,Calm,-,N/A,,Clear,0,2013-03-10 11:38:00
7:41 AM,28.4,26.6,93,30.31,3.0,Calm,Calm,-,N/A,,Clear,0,2013-03-10 11:41:00
8:53 AM,37.9,35.1,89,30.32,9.0,Calm,Calm,-,N/A,,Clear,0,2013-03-10 12:53:00
9:53 AM,48.9,30.9,50,30.33,10.0,Calm,Calm,-,N/A,,Clear,0,2013-03-10 13:53:00
10:53 AM,53.1,30.0,41,30.33,10.0,ESE,4.6,-,N/A,,Clear,120,2013-03-10 14:53:00
11:53 AM,57.9,26.1,30,30.33,10.0,Variable,3.5,-,N/A,,Clear,0,2013-03-10 15:53:00
12:53 PM,61.0,23.0,23,30.31,10.0,East,6.9,-,N/A,,Clear,90,2013-03-10 16:53:00
1:53 PM,64.9,19.9,18,30.29,10.0,East,3.5,-,N/A,,Clear,90,2013-03-10 17:53:00
2:53 PM,64.9,17.1,16,30.26,10.0,Calm,Calm,-,N/A,,Clear,0,2013-03-10 18:53:00
3:53 PM,66.9,19.0,16,30.25,10.0,SE,3.5,-,N/A,,Clear,130,2013-03-10 19:53:00
4:53 PM,66.0,17.1,15,30.24,10.0,Variable,3.5,-,N/A,,Clear,0,2013-03-10 20:53:00
5:53 PM,64.9,18.0,16,30.23,10.0,East,3.5,-,N/A,,Clear,100,2013-03-10 21:53:00
6:53 PM,60.1,21.9,23,30.24,10.0,Calm,Calm,-,N/A,,Clear,0,2013-03-10 22:53:00
7:53 PM,50.0,30.9,48,30.25,10.0,Calm,Calm,-,N/A,,Clear,0,2013-03-10 23:53:00
8:53 PM,46.0,30.0,54,30.26,10.0,Calm,Calm,-,N/A,,Clear,0,2013-03-11 00:53:00
9:53 PM,53.1,27.0,37,30.26,10.0,Calm,Calm,-,N/A,,Clear,0,2013-03-11 01:53:00
10:53 PM,45.0,30.9,58,30.27,10.0,Calm,Calm,-,N/A,,Clear,0,2013-03-11 02:53:00
11:53 PM,46.0,34.0,63,30.27,10.0,Calm,Calm,-,N/A,,Clear,0,2013-03-11 03:53:00
12:53 AM,46.9,37.0,68,30.26,10.0,SE,3.5,-,N/A,,Clear,130,2013-03-11 04:53:00